Tracking 19176 objects as of 26-May-2018
HD Live streaming from Space Station
objects crossing your sky now

CS 3A

Track CS 3A now!
CS 3A is classified as:


NORAD ID: 18877
Int'l Code: 1988-012A
Perigee: 36,356.5 km
Apogee: 36,450.8 km
Inclination: 15.5 °
Period: 1,467.4 minutes
Semi major axis: 42774 km
RCS: 6.1699 m2 (large)
Launch date: February 19, 1988
Source: Japan (JPN)
Launch site: TANEGASHIMA SPACE CENTER (TNSTA)
aabbcc
Your satellite tracking list
Your tracking list is empty




NASA's NSSDC Master Catalog

Two Line Element Set (TLE):
1 18877U 88012A   18145.31499343 -.00000060 +00000-0 +00000-0 0  9992
2 18877 015.5063 015.9214 0011014 276.5052 331.6720 00.98134866098766
Source of the keplerian elements: AFSPC